Hurricane Symbol View the latest observations near Atlantic Tropical Storm Alberto.

Station FFIA2 - Five Fingers, AK Image indicating link to RSS feed of recent meteorological observations for station FFIA2


Conditions at FFIA2 as of
(12:00 pm AKDT)
2000 GMT on 06/19/2024:
     

Click on the graph icon in the table below to see a time series plot of the last five days of that observation.

5-day plot - Wind Direction Wind Direction (WDIR):WSW ( 250 deg true )
5-day plot - Wind Speed Wind Speed (WSPD): 8 kts
5-day plot - Wind Gust Wind Gust (GST): 9 kts
5-day plot - Atmospheric Pressure Atmospheric Pressure (PRES):30.07 in
5-day plot - Pressure Tendency Pressure Tendency (PTDY):-0.01 in ( Falling )
5-day plot - Air Temperature Air Temperature (ATMP): 48.6 °F
5-day plot - Wind Chill Wind Chill (CHILL): 44.6 °F
5-day plot - Wind Speed at 10 Meters Wind Speed at 10 meters (WSPD10M): 8 kts
5-day plot - Wind Speed at 20 Meters Wind Speed at 20 meters (WSPD20M): 8 kts
5-day plot -  Wind Speed, Wind Gust and Atmospheric Pressure Combined plot of Wind Speed, Gust, and Air Pressure
Continuous Winds
TIME
(AKDT)
5-day plot - Wind Direction WDIR 5-day plot - Wind Speed WSPD
12:00 pmWSW ( 244 deg ) 8 kts
11:50 amWSW ( 245 deg ) 8 kts
11:40 amWSW ( 248 deg ) 7 kts
11:30 amWSW ( 246 deg ) 7 kts
11:20 amWSW ( 245 deg ) 7 kts
11:10 amWSW ( 249 deg ) 7 kts
 
Peak gust during the measurement hour
TIME
(AKDT)
5-day plot - Gust Direction GDR 5-day plot - Gust Speed GST
11:58 amWSW ( 240 deg ) 9 kts
Previous observations
TIME
(AKDT)
5-day plot - Wind Direction
WDIR
 
5-day plot - Wind Speed
WSPD
kts
5-day plot - Wind Gust
GST
kts
5-day plot - Wave Height
WVHT
ft
5-day plot - Dominant Wave Period
DPD
sec
5-day plot - Average Wave Period
APD
sec
5-day plot - Mean Wave Direction
MWD
 
5-day plot - Atmospheric Pressure
PRES
in
5-day plot - Pressure Tendency
PTDY
in
5-day plot - Air Temperature
ATMP
°F
5-day plot - Water Temperature
WTMP
°F
5-day plot - Dew Point
DEWP
°F
5-day plot - Salinity
SAL
psu
5-day plot - Visibility
VIS
nmi
5-day plot - Tide (above MLLW)
TIDE
ft
2024-06-19 11:00 amWSW 7 7----30.08+0.00 49.1-----
2024-06-19 10:00 amWSW 4 5----30.08+0.00 49.1-----
2024-06-19 09:00 am SW 5 6----30.08+0.01 49.1-----
2024-06-19 08:00 am SW 7 8----30.08+0.01 49.3-----
2024-06-19 07:00 amWSW 9 10----30.07+0.02 50.5-----
2024-06-19 06:00 am W 10 10----30.07+0.02 50.0-----
2024-06-19 05:00 amWSW 11 12----30.06+0.02 50.5-----
2024-06-19 04:00 am W 9 12----30.06+0.01 50.9-----
2024-06-19 03:00 amWSW 7 9----30.05+0.02 51.3-----
2024-06-19 02:00 am W 6 6----30.05+0.02 52.0-----
2024-06-19 01:00 amWSW 5 6----30.04+0.02 52.5-----
2024-06-19 12:00 amWSW 4 5----30.03+0.02 53.2-----
2024-06-18 11:00 pmSSW 6 7----30.03+0.01 54.1-----
2024-06-18 10:00 pm S 2 3----30.02+0.01 55.0-----
2024-06-18 09:00 pmWSW 11 12----30.01+0.00 55.6-----
2024-06-18 08:00 pmWSW 6 8----30.01-0.01 56.5-----
2024-06-18 07:00 pm SW 7 8----30.01-0.01 56.5-----
2024-06-18 06:00 pmSSW 4 5----30.02-0.01 57.0-----
2024-06-18 05:00 pm SW 4 5----30.02-0.01 57.0-----
2024-06-18 04:00 pm SW 5 5----30.02-0.02 55.2-----
2024-06-18 03:00 pm SW 2 2----30.03-0.02 56.1-----
2024-06-18 02:00 pm SW 3 4----30.04-0.01 54.3-----
2024-06-18 01:00 pmWSW 6 7----30.05+0.00 51.8-----